Regional Weather Roundup
Issued by NWS

Home | Current Version | Previous Version | Graphics & Text | Print | Product List | Glossary On
Versions: 1 2 3 4 5 6 7 8 9 10 11 12 13 14 15 16 17 18 19 20 21 22 23 24 25 26 27 28 29 30 31 32 33 34 35 36 37 38 39 40 41 42 43 44 45 46 47 48 49
000
ASUS45 KCYS 200010
RWRWY

WYOMING REGIONAL WEATHER ROUNDUP
NATIONAL WEATHER SERVICE CHEYENNE WY
500 PM MST FRI DEC 19 2014

NOTE:  "FAIR" INDICATES FEW OR NO CLOUDS BELOW 12,000 FEET
WITH NO SIGNIFICANT WEATHER AND/OR OBSTRUCTIONS TO VISIBILITY.

WYZ001-200100-
YELLOWSTONE NATIONAL PARK

CITY           SKY/WX    TMP DP  RH WIND       PRES   REMARKS
LK YELLOWSTONE   N/A     26  21  81 VRB5      30.02S WCI  20
6HR MIN TEMP:  26; 6HR MAX TEMP:  27;

W YELLOWSTONE  NOT AVBL

$$
WYZ002>013-054>058-071-098>099-200100-
NORTHERN WYOMING

CITY           SKY/WX    TMP DP  RH WIND       PRES   REMARKS
JACKSON        CLOUDY    30  28  93 SW7       30.04F WCI  23
CODY           FAIR      27  16  63 N7        29.90R WCI  19
GREYBULL       FAIR      21  15  78 W5        29.96S WCI  15
6HR MIN TEMP:  17; 6HR MAX TEMP:  29;

WORLAND        FAIR      13   9  84 S5        29.95F WCI   5
6HR MIN TEMP:   9; 6HR MAX TEMP:  20; 6HR PCP: TRACE;

SHERIDAN       FAIR      33  22  63 CALM      29.87F
6HR MIN TEMP:  31; 6HR MAX TEMP:  45;

BUFFALO        FAIR      37  14  38 S9        29.90S WCI  30
6HR MIN TEMP:  34; 6HR MAX TEMP:  43;

GILLETTE       FAIR      32  21  64 SW10      29.91R WCI  24
6HR MIN TEMP:  32; 6HR MAX TEMP:  40;

HULETT           N/A    N/A N/A N/A MISG        N/A
NEWCASTLE      FAIR      30  19  64 E5        29.95S WCI  25

$$
WYZ014>020-022>026-101>103-200100-
CENTRAL WYOMING

CITY           SKY/WX    TMP DP  RH WIND       PRES   REMARKS
BIG PINEY      CLOUDY    31  20  63 E3        30.07S
6HR MIN TEMP:  24; 6HR MAX TEMP:  35;

PINEDALE       CLOUDY    30  21  69 CALM      30.07F
DUBOIS         NOT AVBL
LANDER         FAIR      11   6  81 NW5       29.97F WCI   3
6HR MIN TEMP:   6; 6HR MAX TEMP:  14;

RIVERTON       FAIR      11   8  88 SW5       29.98S WCI   3
6HR MIN TEMP:  10; 6HR MAX TEMP:  15;

CASPER         FAIR      32  23  69 SW20      29.97F WCI  20
6HR MIN TEMP:  29; 6HR MAX TEMP:  33;

DOUGLAS        FAIR      34  22  61 NW5       29.96S WCI  30
6HR MIN TEMP:  33; 6HR MAX TEMP:  41;


$$
WYZ021-027>030-104>119-200100-
SOUTHERN WYOMING

CITY           SKY/WX    TMP DP  RH WIND       PRES   REMARKS
EVANSTON       CLOUDY    33  21  61 SW13      30.06F WCI  24
6HR MIN TEMP:  29; 6HR MAX TEMP:  37; 6HR PCP: TRACE;

KEMMERER       CLOUDY    32  23  69 SW7       30.08S WCI  26
FORT BRIDGER   CLOUDY    35  23  62 W9        30.11S WCI  28
ROCK SPRINGS   MOCLDY    32  21  64 SW9       30.08F WCI  24
6HR MIN TEMP:  30; 6HR MAX TEMP:  34;

DIXON          CLOUDY    19  17  89 CALM      30.18S
RAWLINS        CLOUDY    27  18  69 W18       30.06R WCI  14
6HR MIN TEMP:  27; 6HR MAX TEMP:  31;

SARATOGA       CLOUDY    28  19  69 E9        30.08S WCI  20
LARAMIE        FAIR      25  14  63 W15       30.01S WCI  13
6HR MIN TEMP:  24; 6HR MAX TEMP:  32;

CHEYENNE       FAIR      34  13  41 W16G28    30.00S WCI  24
6HR MIN TEMP:  34; 6HR MAX TEMP:  40;

TORRINGTON     FAIR     N/A N/A N/A SW5       29.97S
PINE BLUFFS    FAIR      32  18  55 W7        30.01S WCI  26

$$



USA.gov is the U.S. government's official web portal to all federal, state and local government web resources and services.